Time,TemperatureF,DewpointF,PressureIn,WindDirection,WindDirectionDegrees,WindSpeedMPH,WindSpeedGustMPH,Humidity,HourlyPrecipIn,Conditions,Clouds,dailyrainin,SoftwareType,DateUTC
2013-07-13 00:01:00,52.0,32.0,-100.00,SSW,204,7.0,11.0,46,-99.99,,,-99.99,,2013-07-13 06:01:00,
2013-07-13 00:11:00,52.0,32.0,-100.00,SSW,204,7.0,11.0,46,-99.99,,,-99.99,,2013-07-13 06:11:00,
2013-07-13 00:43:00,53.0,30.0,-100.00,SSW,204,10.0,15.0,41,-99.99,,,-99.99,,2013-07-13 06:43:00,
2013-07-13 00:52:00,53.0,30.0,-100.00,SSW,204,10.0,15.0,41,-99.99,,,-99.99,,2013-07-13 06:52:00,
2013-07-13 01:02:00,54.0,30.0,-100.00,SSW,202,10.0,13.0,40,-99.99,,,-99.99,,2013-07-13 07:02:00,
2013-07-13 01:22:00,53.0,30.0,-100.00,SSW,201,10.0,14.0,41,-99.99,,,-99.99,,2013-07-13 07:22:00,
2013-07-13 01:33:00,53.0,32.0,-100.00,South,181,6.0,13.0,45,-99.99,,,-99.99,,2013-07-13 07:33:00,
2013-07-13 01:44:00,52.0,31.0,-100.00,SSW,202,9.0,15.0,45,-99.99,,,-99.99,,2013-07-13 07:44:00,
2013-07-13 01:53:00,52.0,31.0,-100.00,SSW,202,9.0,15.0,45,-99.99,,,-99.99,,2013-07-13 07:53:00,
2013-07-13 02:01:00,53.0,31.0,-100.00,SSW,207,8.0,12.0,42,-99.99,,,-99.99,,2013-07-13 08:01:00,
2013-07-13 02:11:00,53.0,31.0,-100.00,SSW,207,8.0,12.0,42,-99.99,,,-99.99,,2013-07-13 08:11:00,
2013-07-13 02:22:00,52.0,31.0,-100.00,SSW,201,9.0,14.0,44,-99.99,,,-99.99,,2013-07-13 08:22:00,
2013-07-13 02:33:00,54.0,31.0,-100.00,SSW,203,10.0,17.0,42,-99.99,,,-99.99,,2013-07-13 08:33:00,
2013-07-13 02:52:00,54.0,30.0,-100.00,SSW,207,9.0,17.0,40,-99.99,,,-99.99,,2013-07-13 08:52:00,
2013-07-13 03:02:00,54.0,29.0,-100.00,SSW,197,10.0,18.0,38,-99.99,,,-99.99,,2013-07-13 09:02:00,
2013-07-13 03:22:00,54.0,28.0,-100.00,SSW,202,11.0,19.0,37,-99.99,,,-99.99,,2013-07-13 09:22:00,
2013-07-13 03:32:00,54.0,28.0,-100.00,SSW,207,8.0,14.0,37,-99.99,,,-99.99,,2013-07-13 09:32:00,
2013-07-13 03:53:00,53.0,29.0,-100.00,SSW,198,8.0,13.0,40,-99.99,,,-99.99,,2013-07-13 09:53:00,
2013-07-13 04:01:00,53.0,29.0,-100.00,SSW,199,11.0,17.0,39,-99.99,,,-99.99,,2013-07-13 10:01:00,
2013-07-13 04:11:00,53.0,29.0,-100.00,SSW,199,11.0,17.0,39,-99.99,,,-99.99,,2013-07-13 10:11:00,
2013-07-13 04:22:00,54.0,31.0,-100.00,SSW,197,11.0,21.0,41,-99.99,,,-99.99,,2013-07-13 10:22:00,
2013-07-13 04:32:00,54.0,32.0,-100.00,SSW,195,13.0,20.0,43,-99.99,,,-99.99,,2013-07-13 10:32:00,
2013-07-13 04:43:00,54.0,33.0,-100.00,SSW,193,13.0,21.0,44,-99.99,,,-99.99,,2013-07-13 10:43:00,
2013-07-13 04:52:00,54.0,33.0,-100.00,SSW,193,13.0,21.0,44,-99.99,,,-99.99,,2013-07-13 10:52:00,
2013-07-13 05:02:00,54.0,34.0,-100.00,SSW,194,8.0,18.0,46,-99.99,,,-99.99,,2013-07-13 11:02:00,
2013-07-13 05:11:00,53.0,32.0,-100.00,SW,220,8.0,16.0,45,-99.99,,,-99.99,,2013-07-13 11:11:00,
2013-07-13 05:22:00,53.0,32.0,-100.00,SW,220,8.0,16.0,45,-99.99,,,-99.99,,2013-07-13 11:22:00,
2013-07-13 05:32:00,54.0,32.0,-100.00,SSW,202,8.0,13.0,43,-99.99,,,-99.99,,2013-07-13 11:32:00,
2013-07-13 05:42:00,53.0,33.0,-100.00,South,187,7.0,10.0,46,-99.99,,,-99.99,,2013-07-13 11:42:00,
2013-07-13 05:52:00,53.0,33.0,-100.00,South,187,7.0,10.0,46,-99.99,,,-99.99,,2013-07-13 11:52:00,
2013-07-13 06:02:00,53.0,33.0,-100.00,SSW,193,9.0,12.0,47,-99.99,,,-99.99,,2013-07-13 12:02:00,
2013-07-13 06:12:00,53.0,33.0,-100.00,SSW,193,9.0,12.0,47,-99.99,,,-99.99,,2013-07-13 12:12:00,
2013-07-13 06:22:00,53.0,34.0,-100.00,SSW,204,10.0,16.0,48,-99.99,,,-99.99,,2013-07-13 12:22:00,
2013-07-13 06:32:00,53.0,33.0,-100.00,SSW,197,11.0,15.0,47,-99.99,,,-99.99,,2013-07-13 12:32:00,
2013-07-13 06:43:00,53.0,33.0,-100.00,SSW,192,9.0,16.0,46,-99.99,,,-99.99,,2013-07-13 12:43:00,
2013-07-13 06:52:00,53.0,33.0,-100.00,SSW,192,9.0,16.0,46,-99.99,,,-99.99,,2013-07-13 12:52:00,
2013-07-13 07:01:00,53.0,32.0,-100.00,SSW,200,10.0,16.0,44,-99.99,,,-99.99,,2013-07-13 13:01:00,
2013-07-13 07:11:00,53.0,32.0,-100.00,SSW,200,10.0,16.0,44,-99.99,,,-99.99,,2013-07-13 13:11:00,
2013-07-13 07:43:00,53.0,33.0,-100.00,SSW,197,9.0,15.0,46,-99.99,,,-99.99,,2013-07-13 13:43:00,
2013-07-13 07:53:00,54.0,33.0,-100.00,SSW,192,8.0,15.0,45,-99.99,,,-99.99,,2013-07-13 13:53:00,
2013-07-13 08:11:00,53.0,34.0,-100.00,South,180,6.0,9.0,48,-99.99,,,-99.99,,2013-07-13 14:11:00,
2013-07-13 08:22:00,54.0,34.0,-100.00,South,179,5.0,8.0,47,-99.99,,,-99.99,,2013-07-13 14:22:00,
2013-07-13 08:32:00,55.0,35.0,-100.00,SSW,205,4.0,9.0,47,-99.99,,,-99.99,,2013-07-13 14:32:00,
2013-07-13 08:53:00,59.0,37.0,-100.00,SSE,149,6.0,9.0,43,-99.99,,,-99.99,,2013-07-13 14:53:00,
2013-07-13 09:02:00,57.0,35.0,-100.00,South,178,6.0,22.0,44,-99.99,,,-99.99,,2013-07-13 15:02:00,
2013-07-13 09:22:00,49.0,40.0,-100.00,WNW,292,23.0,51.0,70,-99.99,,,-99.99,,2013-07-13 15:22:00,
2013-07-13 09:43:00,45.0,40.0,-100.00,NW,307,28.0,47.0,82,-99.99,,,-99.99,,2013-07-13 15:43:00,
2013-07-13 09:53:00,45.0,40.0,-100.00,WNW,300,23.0,38.0,82,-99.99,,,-99.99,,2013-07-13 15:53:00,
2013-07-13 10:02:00,45.0,39.0,-100.00,WNW,285,29.0,43.0,78,-99.99,,,-99.99,,2013-07-13 16:02:00,
2013-07-13 10:11:00,45.0,39.0,-100.00,WNW,285,29.0,43.0,78,-99.99,,,-99.99,,2013-07-13 16:11:00,
2013-07-13 10:22:00,45.0,39.0,-100.00,WNW,302,27.0,43.0,80,-99.99,,,-99.99,,2013-07-13 16:22:00,
2013-07-13 10:32:00,45.0,38.0,-100.00,West,260,25.0,44.0,76,-99.99,,,-99.99,,2013-07-13 16:32:00,
2013-07-13 10:43:00,46.0,40.0,-100.00,SSW,199,15.0,33.0,79,-99.99,,,-99.99,,2013-07-13 16:43:00,
2013-07-13 10:53:00,46.0,40.0,-100.00,SSW,199,15.0,33.0,79,-99.99,,,-99.99,,2013-07-13 16:53:00,
2013-07-13 11:01:00,45.0,40.0,-100.00,SW,218,15.0,33.0,81,-99.99,,,-99.99,,2013-07-13 17:01:00,
2013-07-13 11:11:00,45.0,40.0,-100.00,SW,218,15.0,33.0,81,-99.99,,,-99.99,,2013-07-13 17:11:00,
2013-07-13 11:22:00,45.0,40.0,-100.00,WSW,242,5.0,14.0,83,-99.99,,,-99.99,,2013-07-13 17:22:00,
2013-07-13 11:33:00,46.0,41.0,-100.00,South,184,8.0,18.0,82,-99.99,,,-99.99,,2013-07-13 17:33:00,
2013-07-13 11:42:00,47.0,44.0,-100.00,South,186,7.0,14.0,89,-99.99,,,-99.99,,2013-07-13 17:42:00,
2013-07-13 11:52:00,47.0,44.0,-100.00,South,186,7.0,14.0,89,-99.99,,,-99.99,,2013-07-13 17:52:00,
2013-07-13 12:01:00,49.0,41.0,-100.00,SW,217,10.0,18.0,75,-99.99,,,-99.99,,2013-07-13 18:01:00,
2013-07-13 12:11:00,49.0,41.0,-100.00,SW,217,10.0,18.0,75,-99.99,,,-99.99,,2013-07-13 18:11:00,
2013-07-13 12:21:00,51.0,46.0,-100.00,SSE,165,7.0,10.0,82,-99.99,,,-99.99,,2013-07-13 18:21:00,
2013-07-13 12:32:00,50.0,43.0,-100.00,South,191,7.0,15.0,78,-99.99,,,-99.99,,2013-07-13 18:32:00,
2013-07-13 12:43:00,50.0,45.0,-100.00,South,189,3.0,7.0,84,-99.99,,,-99.99,,2013-07-13 18:43:00,
2013-07-13 12:53:00,50.0,45.0,-100.00,South,189,3.0,7.0,84,-99.99,,,-99.99,,2013-07-13 18:53:00,
2013-07-13 13:02:00,51.0,47.0,-100.00,SSE,166,3.0,8.0,85,-99.99,,,-99.99,,2013-07-13 19:02:00,
2013-07-13 13:11:00,51.0,47.0,-100.00,SSE,166,3.0,8.0,85,-99.99,,,-99.99,,2013-07-13 19:11:00,
2013-07-13 13:22:00,50.0,44.0,-100.00,SSE,152,9.0,15.0,81,-99.99,,,-99.99,,2013-07-13 19:22:00,
2013-07-13 13:32:00,50.0,43.0,-100.00,South,176,11.0,14.0,77,-99.99,,,-99.99,,2013-07-13 19:32:00,
2013-07-13 13:52:00,50.0,43.0,-100.00,SSE,167,11.0,16.0,78,-99.99,,,-99.99,,2013-07-13 19:52:00,
2013-07-13 14:01:00,50.0,43.0,-100.00,SSE,165,11.0,15.0,76,-99.99,,,-99.99,,2013-07-13 20:01:00,
2013-07-13 14:11:00,51.0,43.0,-100.00,SSE,166,12.0,17.0,75,-99.99,,,-99.99,,2013-07-13 20:11:00,
2013-07-13 14:22:00,51.0,43.0,-100.00,SSE,166,12.0,17.0,75,-99.99,,,-99.99,,2013-07-13 20:22:00,
2013-07-13 14:33:00,53.0,43.0,-100.00,SSE,168,11.0,16.0,70,-99.99,,,-99.99,,2013-07-13 20:33:00,
2013-07-13 14:42:00,53.0,43.0,-100.00,SSE,164,13.0,17.0,70,-99.99,,,-99.99,,2013-07-13 20:42:00,
2013-07-13 14:52:00,53.0,43.0,-100.00,SSE,164,13.0,17.0,70,-99.99,,,-99.99,,2013-07-13 20:52:00,
2013-07-13 15:02:00,52.0,43.0,-100.00,South,169,12.0,16.0,70,-99.99,,,-99.99,,2013-07-13 21:02:00,
2013-07-13 15:11:00,54.0,43.0,-100.00,SSE,165,12.0,16.0,66,-99.99,,,-99.99,,2013-07-13 21:11:00,
2013-07-13 15:22:00,54.0,43.0,-100.00,SSE,165,12.0,16.0,66,-99.99,,,-99.99,,2013-07-13 21:22:00,
2013-07-13 15:32:00,55.0,43.0,-100.00,SSE,168,12.0,18.0,63,-99.99,,,-99.99,,2013-07-13 21:32:00,
2013-07-13 16:01:00,56.0,44.0,-100.00,SSE,168,10.0,15.0,63,-99.99,,,-99.99,,2013-07-13 22:01:00,
2013-07-13 16:11:00,56.0,44.0,-100.00,SSE,168,10.0,15.0,63,-99.99,,,-99.99,,2013-07-13 22:11:00,
2013-07-13 16:22:00,56.0,44.0,-100.00,SSE,159,9.0,17.0,63,-99.99,,,-99.99,,2013-07-13 22:22:00,
2013-07-13 16:32:00,56.0,45.0,-100.00,SSE,165,12.0,17.0,66,-99.99,,,-99.99,,2013-07-13 22:32:00,
2013-07-13 16:43:00,57.0,45.0,-100.00,SSE,160,9.0,12.0,65,-99.99,,,-99.99,,2013-07-13 22:43:00,
2013-07-13 16:53:00,57.0,45.0,-100.00,SSE,160,9.0,12.0,65,-99.99,,,-99.99,,2013-07-13 22:53:00,
2013-07-13 17:01:00,59.0,45.0,-100.00,SSE,163,6.0,10.0,60,-99.99,,,-99.99,,2013-07-13 23:01:00,
2013-07-13 17:11:00,59.0,45.0,-100.00,South,172,4.0,10.0,60,-99.99,,,-99.99,,2013-07-13 23:11:00,
2013-07-13 17:22:00,59.0,45.0,-100.00,South,172,4.0,10.0,60,-99.99,,,-99.99,,2013-07-13 23:22:00,
2013-07-13 17:32:00,58.0,45.0,-100.00,SSE,156,2.0,6.0,62,-99.99,,,-99.99,,2013-07-13 23:32:00,
2013-07-13 17:42:00,58.0,45.0,-100.00,SW,218,2.0,7.0,63,-99.99,,,-99.99,,2013-07-13 23:42:00,
2013-07-13 17:53:00,58.0,45.0,-100.00,SW,218,2.0,7.0,63,-99.99,,,-99.99,,2013-07-13 23:53:00,
2013-07-13 18:01:00,59.0,46.0,-100.00,SSE,161,5.0,10.0,61,-99.99,,,-99.99,,2013-07-14 00:01:00,
2013-07-13 18:11:00,59.0,46.0,-100.00,SSE,161,5.0,10.0,61,-99.99,,,-99.99,,2013-07-14 00:11:00,
2013-07-13 18:21:00,60.0,46.0,-100.00,South,169,5.0,9.0,60,-99.99,,,-99.99,,2013-07-14 00:21:00,
2013-07-13 18:33:00,61.0,46.0,-100.00,South,169,5.0,7.0,58,-99.99,,,-99.99,,2013-07-14 00:33:00,
2013-07-13 18:53:00,58.0,46.0,-100.00,South,179,6.0,9.0,64,-99.99,,,-99.99,,2013-07-14 00:53:00,
2013-07-13 19:01:00,56.0,46.0,-100.00,SSE,166,7.0,9.0,68,-99.99,,,-99.99,,2013-07-14 01:01:00,
2013-07-13 19:11:00,56.0,45.0,-100.00,South,175,6.0,11.0,66,-99.99,,,-99.99,,2013-07-14 01:11:00,
2013-07-13 19:22:00,56.0,45.0,-100.00,South,175,6.0,11.0,66,-99.99,,,-99.99,,2013-07-14 01:22:00,
2013-07-13 19:43:00,56.0,43.0,-100.00,SSE,168,9.0,12.0,62,-99.99,,,-99.99,,2013-07-14 01:43:00,
2013-07-13 19:52:00,56.0,43.0,-100.00,SSE,168,9.0,12.0,62,-99.99,,,-99.99,,2013-07-14 01:52:00,
2013-07-13 20:01:00,56.0,43.0,-100.00,SSE,165,9.0,12.0,61,-99.99,,,-99.99,,2013-07-14 02:01:00,
2013-07-13 20:11:00,56.0,43.0,-100.00,SSE,167,8.0,11.0,61,-99.99,,,-99.99,,2013-07-14 02:11:00,
2013-07-13 20:22:00,56.0,43.0,-100.00,SSE,167,8.0,11.0,61,-99.99,,,-99.99,,2013-07-14 02:22:00,
2013-07-13 20:32:00,55.0,42.0,-100.00,South,170,7.0,10.0,61,-99.99,,,-99.99,,2013-07-14 02:32:00,
2013-07-13 20:43:00,55.0,43.0,-100.00,South,172,11.0,15.0,65,-99.99,,,-99.99,,2013-07-14 02:43:00,
2013-07-13 20:53:00,55.0,43.0,-100.00,South,172,11.0,15.0,65,-99.99,,,-99.99,,2013-07-14 02:53:00,
2013-07-13 21:01:00,54.0,43.0,-100.00,South,170,10.0,13.0,67,-99.99,,,-99.99,,2013-07-14 03:01:00,
2013-07-13 21:11:00,54.0,44.0,-100.00,South,177,11.0,14.0,68,-99.99,,,-99.99,,2013-07-14 03:11:00,
2013-07-13 21:22:00,54.0,44.0,-100.00,South,177,11.0,14.0,68,-99.99,,,-99.99,,2013-07-14 03:22:00,
2013-07-13 21:32:00,54.0,43.0,-100.00,South,183,10.0,14.0,67,-99.99,,,-99.99,,2013-07-14 03:32:00,
2013-07-13 21:53:00,54.0,43.0,-100.00,SSW,192,9.0,13.0,67,-99.99,,,-99.99,,2013-07-14 03:53:00,
2013-07-13 22:02:00,54.0,43.0,-100.00,SSW,192,10.0,13.0,66,-99.99,,,-99.99,,2013-07-14 04:02:00,
2013-07-13 22:11:00,54.0,43.0,-100.00,South,175,7.0,10.0,65,-99.99,,,-99.99,,2013-07-14 04:11:00,
2013-07-13 22:22:00,54.0,43.0,-100.00,South,175,7.0,10.0,65,-99.99,,,-99.99,,2013-07-14 04:22:00,
2013-07-13 22:32:00,54.0,43.0,-100.00,South,175,7.0,10.0,66,-99.99,,,-99.99,,2013-07-14 04:32:00,
2013-07-13 22:42:00,54.0,43.0,-100.00,South,169,7.0,8.0,67,-99.99,,,-99.99,,2013-07-14 04:42:00,
2013-07-13 22:54:00,54.0,43.0,-100.00,South,169,7.0,8.0,67,-99.99,,,-99.99,,2013-07-14 04:54:00,
2013-07-13 23:02:00,53.0,43.0,-100.00,South,169,9.0,10.0,70,-99.99,,,-99.99,,2013-07-14 05:02:00,
2013-07-13 23:11:00,53.0,43.0,-100.00,South,169,9.0,10.0,70,-99.99,,,-99.99,,2013-07-14 05:11:00,
2013-07-13 23:22:00,53.0,44.0,-100.00,South,172,8.0,10.0,71,-99.99,,,-99.99,,2013-07-14 05:22:00,
2013-07-13 23:32:00,52.0,43.0,-100.00,South,179,8.0,10.0,70,-99.99,,,-99.99,,2013-07-14 05:32:00,
2013-07-13 23:43:00,52.0,39.0,-100.00,South,175,9.0,12.0,62,-99.99,,,-99.99,,2013-07-14 05:43:00,
2013-07-13 23:53:00,52.0,39.0,-100.00,South,175,9.0,12.0,62,-99.99,,,-99.99,,2013-07-14 05:53:00,